DW2973 Weather Reports


time (UTC)temp
C
wind
direction
speed
KPH
gust
KPH
rain 1hr
cm
rain 24hr
cm
rain mn
cm
humidity
%
barometer
mb
20260510123014 14 355 1.6 0.0 0.00 0.00 0.00 61 1011.5
20260510121517 15 360 0.0 0.0 0.00 0.00 0.00 61 1011.5
20260510120011 15 323 0.0 0.0 0.00 0.00 0.00 63 1011.7
20260510114510 15 306 0.0 0.0 0.00 0.00 0.00 69 1011.8
20260510113010 13 347 0.0 0.0 0.00 0.00 0.00 75 1012.1
20260510111506 14 344 0.0 0.0 0.00 0.00 0.00 72 1012.1
20260510110007 15 336 1.6 0.0 0.00 0.00 0.00 69 1012.3
20260510104504 15 331 0.0 0.0 0.00 0.00 0.00 65 1012.3
20260510103001 15 324 0.0 0.0 0.00 0.00 0.00 68 1012.5
20260510101559 14 219 0.0 0.0 0.00 0.00 0.00 70 1012.6
20260510100112 13 213 0.0 0.0 0.00 0.00 0.00 73 1012.9
20260510094600 12 213 0.0 0.0 0.00 0.00 0.00 74 1013.1
20260510093054 12 211 0.0 0.0 0.00 0.00 0.00 74 1013.0
20260510091546 12 203 0.0 0.0 0.00 0.00 0.00 75 1013.3
20260510090050 12 202 0.0 0.0 0.00 0.00 0.00 76 1013.4
20260510084603 11 199 0.0 0.0 0.00 0.00 0.00 76 1013.4
20260510083041 11 199 0.0 0.0 0.00 0.00 0.00 76 1013.5
20260510081550 11 199 0.0 0.0 0.00 0.00 0.00 76 1013.4
20260510080045 11 199 0.0 0.0 0.00 0.00 0.00 77 1013.3
20260510074540 11 190 0.0 0.0 0.00 0.00 0.00 77 1013.4
20260510073039 11 173 0.0 0.0 0.00 0.00 0.00 80 1013.3
20260510071543 10 169 0.0 0.0 0.00 0.00 0.00 81 1013.6
20260510070039 10 169 0.0 0.0 0.00 0.00 0.00 81 1013.8
20260510064534 10 167 0.0 0.0 0.00 0.00 0.00 82 1013.7
20260510063030 10 167 0.0 0.0 0.00 0.00 0.00 84 1013.8
20260510061526 9 167 0.0 0.0 0.00 0.00 0.00 84 1013.8
20260510060024 8 167 0.0 0.0 0.00 0.00 0.00 84 1014.2
20260510054521 8 167 0.0 0.0 0.00 0.00 0.00 84 1014.2
20260510053024 8 167 0.0 0.0 0.00 0.00 0.00 84 1014.3
20260510051519 7 167 0.0 0.0 0.00 0.00 0.00 85 1014.3
20260510050016 7 165 0.0 0.0 0.00 0.00 0.00 86 1014.4
20260510044526 7 166 0.0 0.0 0.00 0.00 0.00 86 1014.6
20260510043013 7 166 0.0 0.0 0.00 0.00 0.00 86 1014.8
20260510041514 7 166 0.0 0.0 0.00 0.00 0.00 86 1014.8
20260510040011 7 166 0.0 0.0 0.00 0.00 0.00 87 1015.0
20260510034508 7 166 0.0 0.0 0.00 0.00 0.00 87 1015.1
20260510033007 6 166 0.0 0.0 0.00 0.00 0.00 88 1015.3
20260510031506 6 166 0.0 0.0 0.00 0.00 0.00 88 1015.3
20260510030004 5 165 0.0 0.0 0.00 0.00 0.00 88 1015.4
20260510024502 5 166 0.0 0.0 0.00 0.00 0.00 87 1015.6
20260510023100 5 166 0.0 0.0 0.00 0.00 0.00 86 1015.8
20260510021600 5 166 0.0 0.0 0.00 0.00 0.00 85 1016.1
20260510020058 5 166 0.0 0.0 0.00 0.00 0.00 85 1016.1
20260510014557 5 165 0.0 0.0 0.00 0.00 0.00 84 1016.2
20260510013054 5 166 0.0 0.0 0.00 0.00 0.00 83 1016.3
20260510011553 5 165 0.0 0.0 0.00 0.00 0.00 83 1016.5
20260510010053 5 165 0.0 0.0 0.00 0.00 0.00 83 1016.7
20260510004550 5 165 0.0 0.0 0.00 0.00 0.00 83 1016.9
20260510003046 5 165 0.0 0.0 0.00 0.00 0.00 83 1017.1
20260510001545 5 166 0.0 0.0 0.00 0.00 0.00 83 1017.5
20260510000100 5 165 0.0 0.0 0.00 0.00 0.00 83 1017.7
20260509234553 5 165 0.0 0.0 0.00 0.00 0.00 83 1017.7
20260509233045 5 166 0.0 0.0 0.00 0.00 0.00 82 1017.9
20260509231535 5 165 0.0 0.0 0.00 0.00 0.00 81 1018.1
20260509230036 5 166 0.0 0.0 0.00 0.00 0.00 80 1018.4
20260509224531 6 165 0.0 0.0 0.00 0.00 0.00 78 1018.5
20260509223027 6 166 0.0 0.0 0.00 0.00 0.00 77 1018.5
20260509221527 7 167 0.0 0.0 0.00 0.00 0.00 76 1018.6
20260509220026 7 167 0.0 0.0 0.00 0.00 0.00 77 1018.6
20260509214529 7 167 0.0 0.0 0.00 0.00 0.00 75 1018.7
20260509213022 7 167 0.0 0.0 0.00 0.00 0.00 74 1018.7
20260509211522 8 167 0.0 0.0 0.00 0.00 0.00 73 1018.8
20260509210026 8 167 0.0 0.0 0.00 0.00 0.00 73 1018.8
20260509204525 8 167 0.0 0.0 0.00 0.00 0.00 72 1019.0
20260509203020 8 167 0.0 0.0 0.00 0.00 0.00 71 1019.1
20260509201521 8 165 0.0 0.0 0.00 0.00 0.00 68 1019.0
20260509200020 8 165 0.0 0.0 0.00 0.00 0.00 66 1019.1
20260509194521 10 165 0.0 0.0 0.00 0.00 0.00 63 1019.0
20260509193025 10 165 0.0 0.0 0.00 0.00 0.00 60 1019.0
20260509191525 11 165 0.0 0.0 0.00 0.00 0.00 56 1018.8
20260509190018 11 165 0.0 0.0 0.00 0.00 0.00 52 1018.8
20260509184529 12 167 0.0 0.0 0.00 0.00 0.00 48 1018.5
20260509183017 13 167 0.0 0.0 0.00 0.00 0.00 45 1018.5
20260509181516 13 168 0.0 0.0 0.00 0.00 0.00 45 1018.6
20260509180017 14 171 0.0 0.0 0.00 0.00 0.00 45 1018.6
20260509174515 15 168 0.0 0.0 0.00 0.00 0.00 43 1018.6
20260509173014 15 163 0.0 0.0 0.00 0.00 0.00 41 1018.7
20260509171517 16 163 0.0 0.0 0.00 0.00 0.00 39 1018.7
20260509170015 17 202 0.0 0.0 0.00 0.00 0.00 38 1018.8
20260509164512 17 228 0.0 0.0 0.00 0.00 0.00 39 1018.9
20260509163013 17 232 3.2 0.0 0.00 0.00 0.00 37 1018.8
20260509161511 17 134 0.0 0.0 0.00 0.00 0.00 38 1018.9
20260509160009 17 30 0.0 0.0 0.00 0.00 0.00 42 1019.2
20260509154508 17 30 0.0 0.0 0.00 0.00 0.00 43 1019.4
20260509153005 17 29 0.0 0.0 0.00 0.00 0.00 42 1019.5
20260509151505 16 26 0.0 0.0 0.00 0.00 0.00 44 1019.5
20260509150002 16 360 0.0 0.0 0.00 0.00 0.00 42 1019.8
20260509144507 16 18 0.0 0.0 0.00 0.00 0.00 41 1019.8
20260509143129 15 44 0.0 0.0 0.00 0.00 0.00 43 1020.1
20260509141558 16 355 0.0 0.0 0.00 0.00 0.00 43 1020.1
20260509140106 15 9 0.0 0.0 0.00 0.00 0.00 44 1020.4
20260509134610 16 10 1.6 0.0 0.00 0.00 0.00 42 1020.6
20260509133054 16 38 0.0 0.0 0.00 0.00 0.00 43 1020.7
20260509131553 15 13 1.6 0.0 0.00 0.00 0.00 43 1021.0
20260509130059 15 11 1.6 0.0 0.00 0.00 0.00 43 1020.9
20260509124550 16 42 0.0 0.0 0.00 0.00 0.00 43 1021.1